Location: Boulin
(43.2500°N, 0.1333°E)
Time: 05:23:56
(UTC+00:00)

Cosmos 1933 - Pass Details

Date: 17 March 2026
Orbit: 507 x 515 km, 82.5° (Epoch: 15 April)

Event Time Altitude Azimuth Distance (km) Brightness Sun altitude
Rises 04:16:22 0° 161° (SSE) 2,619 6.8 -20.9°
Reaches altitude 10° 04:18:41 10° 150° (SSE) 1,737 6.0 -20.5°
Maximum altitude 04:21:57 28° 91° (E) 999 5.3 -19.9°
Drops below altitude 10° 04:25:15 10° 31° (NNE) 1,747 6.5 -19.4°
Sets 04:27:35 0° 20° (NNE) 2,638 7.3 -19.0°
